Wind_Speed
5 11 22 27 28 30 32 30 25 18 13 10 5 4 12 15 18 23 27 31 36 34 39 43 35 41 40 44 48 44 40 32 35 28 25 24 28 31 33 33 32 31 31
7 7 16 20 26 26 26 24 23 17 12 10 11 10 7 7 13 19 21 26 31 36 36 40 40 44 41 38 38 37 32 32 41 23 23 4 8 22 30 33 34 33 31
9 7 8 14 19 19 18 17 15 13 11 8 8 8 10 12 12 13 13 16 22 29 36 38 38 40 44 41 45 47 45 40 41 39 19 4 6 11 23 32 35 34 34
6 6 8 12 16 15 15 14 13 10 8 6 9 7 4 4 9 12 18 22 23 23 25 31 36 39 43 43 46 51 50 43 40 37 39 24 18 7 5 20 31 36 36
8 7 8 14 16 15 15 13 12 11 10 12 14 16 13 11 11 13 18 22 27 31 31 29 30 36 33 37 41 43 47 47 38 44 46 28 21 17 7 11 17 27 33
7 8 12 17 16 17 15 13 13 11 12 12 14 15 18 22 23 22 23 28 30 28 30 32 32 36 35 35 38 37 42 48 45 47 42 42 26 18 9 7 20 25 27
7 7 8 12 17 15 14 10 10 10 9 13 16 17 17 19 22 26 33 40 32 27 28 28 32 35 36 38 38 39 41 41 42 46 43 44 43 32 25 18 23 17 28
6 8 7 12 11 11 13 12 11 10 13 16 19 23 27 31 35 38 38 39 40 39 37 36 36 37 38 40 41 41 41 47 48 40 43 44 41 32 34 30 35 13 12
5 8 6 8 8 10 12 11 11 13 16 19 23 29 33 36 36 38 40 38 37 34 36 40 38 39 39 42 44 44 42 42 49 52 45 45 37 36 33 34 48 31 11
7 6 5 5 7 12 7 6 6 8 15 18 24 26 29 33 36 38 38 37 36 34 35 38 40 42 43 43 42 47 49 45 46 49 46 47 41 35 38 41 42 34 24
7 5 3 6 12 6 5 2 8 16 22 24 31 30 29 34 38 36 36 33 35 39 37 38 40 42 42 42 42 48 50 48 47 49 49 49 47 39 39 41 38 28 29
7 6 6 8 6 3 8 11 17 25 27 27 32 31 33 37 36 36 37 37 35 38 39 39 39 38 42 44 46 50 52 52 51 54 50 48 45 41 39 40 35 30 29
6 4 5 4 5 9 14 19 27 29 31 30 30 28 31 37 33 36 33 32 38 41 39 37 35 39 41 42 46 52 56 56 55 50 52 48 42 40 40 40 34 33 34
5 5 5 4 9 14 19 25 29 31 30 24 27 28 31 32 30 32 32 34 36 36 36 33 35 37 40 44 50 54 53 53 49 49 49 46 45 43 47 43 39 39 37
6 4 2 3 8 14 20 23 25 25 25 31 26 28 33 32 31 32 31 34 33 33 31 31 33 35 36 34 19 9 16 22 25 30 37 39 42 48 49 44 41 42 37
5 3 2 5 8 15 19 18 19 28 29 29 29 33 29 29 29 33 34 31 30 28 30 28 24 22 24 20 15 14 19 27 30 29 31 38 42 45 46 43 45 44 39
4 3 5 6 12 16 11 16 25 27 26 24 27 29 29 30 33 33 32 29 27 31 24 19 15 12 10 8 12 17 26 28 29 31 34 34 38 45 42 41 41 40 38
5 5 5 8 13 7 15 21 25 23 22 24 25 28 30 33 33 32 28 25 27 23 21 19 13 7 4 11 17 22 26 28 29 31 36 36 36 41 40 38 37 37 38
7 7 6 9 4 9 15 22 20 18 20 21 24 28 30 31 32 29 24 22 19 17 13 9 5 5 6 11 19 24 26 26 26 27 34 36 36 39 39 31 31 30 32
7 5 7 1 4 8 16 19 16 18 19 23 27 30 30 29 30 25 20 14 11 8 3 1 1 6 12 15 20 25 26 24 24 25 27 34 34 33 34 38 36 29 29
3 3 6 2 4 10 17 13 16 17 22 27 29 29 28 27 24 18 10 5 3 4 8 10 10 11 14 16 19 22 24 24 23 24 25 29 34 37 38 37 34 33 32
1 7 1 1 4 12 15 14 16 21 26 28 27 26 24 24 17 9 3 2 4 8 12 15 16 14 14 16 19 22 26 27 28 24 26 29 29 27 24 26 25 27 28
9 2 2 2 5 14 11 12 18 26 28 26 23 23 22 19 12 5 1 5 7 9 10 11 11 13 16 17 17 20 23 24 27 27 27 25 23 21 21 21 23 27 29
6 6 9 3 6 11 12 17 21 24 25 22 22 21 18 15 9 3 3 5 7 9 9 10 10 12 16 18 21 21 20 22 26 27 27 23 20 19 21 21 22 24 27
5 7 6 4 4 11 19 19 20 23 21 19 20 19 15 11 7 2 3 5 5 10 13 12 14 13 12 13 19 20 23 26 28 28 24 22 21 19 18 18 20 21 22
5 9 6 4 5 13 16 16 19 19 18 15 16 16 13 11 7 5 5 2 5 7 11 16 17 14 16 17 17 17 22 25 25 24 20 16 17 16 16 17 18 20 21
Wind_Direction
146 107 107 109 103 99 98 97 94 83 95 103 54 303 277 277 268 258 256 259 260 256 241 231 226 226 217 219 221 209 203 191 185 161 171 182 190 191 192 190 187 185 183
128 113 102 102 103 102 99 95 89 82 82 67 51 39 8 328 304 287 290 273 262 267 255 238 229 228 217 214 211 197 191 191 179 173 149 157 196 203 199 193 193 189 189
132 130 98 102 94 91 88 84 78 65 80 77 38 22 350 331 330 328 324 322 307 280 262 260 244 234 224 215 211 200 195 192 191 186 169 154 203 154 196 191 191 191 186
113 118 111 103 104 96 80 73 68 60 46 37 29 25 341 282 302 308 314 316 315 311 300 285 268 246 233 220 211 205 206 202 186 196 201 189 153 178 154 194 191 191 190
137 120 111 102 106 101 90 81 65 50 28 2 344 324 312 295 286 292 300 305 309 308 305 297 292 273 257 229 222 210 209 207 198 200 193 189 178 186 153 170 174 189 190
106 106 114 101 96 86 78 73 60 49 18 353 330 314 303 302 308 304 299 300 299 294 294 291 290 284 270 260 241 232 218 210 211 207 207 196 190 190 168 153 174 175 179
119 115 98 91 90 78 70 65 43 22 349 320 311 317 316 310 303 301 300 300 298 287 288 279 284 281 275 265 257 241 225 226 219 200 212 206 216 203 191 168 166 164 159
124 116 127 113 98 76 62 69 56 31 3 347 329 321 318 313 309 304 299 290 281 281 293 288 283 278 276 270 260 247 239 224 219 223 210 216 214 211 189 172 156 151 165
108 132 114 86 86 71 83 51 22 356 343 340 330 322 318 315 306 301 294 285 275 283 288 289 283 277 273 268 265 254 240 230 219 215 214 213 214 202 195 179 170 162 161
103 99 77 75 98 109 78 34 7 340 327 324 328 325 323 317 307 301 295 291 283 288 288 284 282 277 270 264 259 259 249 236 222 214 213 205 206 200 191 183 181 179 160
115 129 147 106 123 99 44 7 334 331 334 332 333 325 312 316 307 298 294 287 287 291 288 284 280 275 270 266 262 255 252 242 228 215 210 206 201 191 189 179 179 173 159
162 175 152 126 119 46 6 346 342 336 333 324 319 318 315 314 300 294 290 288 284 291 291 285 280 271 271 269 263 256 250 245 232 212 207 199 193 191 185 170 171 159 160
143 101 92 77 36 0 346 342 339 331 326 320 317 314 308 309 294 292 288 287 296 294 289 282 276 279 277 275 269 259 248 239 233 207 200 191 182 181 171 160 155 150 145
94 88 57 21 355 340 334 336 334 329 323 320 318 309 304 302 300 298 295 292 294 289 287 281 285 287 288 283 273 263 250 230 222 197 187 184 180 175 164 162 158 147 146
97 76 45 336 321 317 318 326 324 320 320 322 315 310 308 305 305 303 297 295 293 291 285 294 295 293 284 272 265 190 167 165 166 175 173 172 174 164 163 161 158 149 145
127 131 263 264 285 308 315 321 325 323 325 315 309 311 307 304 304 304 300 301 298 289 303 301 291 286 283 276 224 187 164 143 139 137 148 158 159 155 162 162 155 154 146
160 238 268 270 291 318 332 329 328 327 315 306 310 315 314 310 307 305 304 305 296 309 305 289 290 297 291 240 173 169 141 134 136 140 138 143 151 147 149 158 166 175 186
195 233 246 283 330 338 331 331 330 319 315 324 324 322 319 311 310 307 306 300 308 311 296 291 283 259 133 155 147 139 133 131 136 144 146 148 148 152 156 153 155 159 166
205 223 295 333 328 334 335 333 326 321 330 329 324 324 318 312 309 305 310 315 315 311 297 282 247 188 162 164 149 144 126 125 131 138 142 147 154 164 170 158 156 162 171
219 266 341 187 325 337 336 336 329 334 336 332 331 324 319 313 307 306 315 318 319 305 320 336 138 150 134 136 139 134 120 109 113 128 137 159 161 169 172 159 152 144 155
266 12 153 274 355 342 342 336 339 342 336 336 331 324 320 316 316 313 312 333 324 84 87 86 93 115 131 132 148 144 124 118 111 114 119 134 147 154 158 156 157 156 155
336 142 164 230 346 349 350 349 347 342 344 339 329 321 328 329 326 307 327 114 121 101 89 88 84 106 119 127 134 140 134 130 121 117 129 142 155 161 164 158 156 157 159
141 127 219 147 18 5 8 355 350 351 345 335 327 327 334 339 335 304 155 130 123 103 88 89 91 88 106 112 128 134 138 140 127 127 134 140 147 153 156 159 163 163 160
165 184 160 129 35 27 19 14 1 353 344 328 329 328 335 349 348 317 176 146 133 118 108 104 98 96 99 102 109 115 125 128 121 120 121 129 132 131 133 141 157 162 167
156 161 159 126 51 34 27 17 6 356 337 334 330 330 350 3 5 25 175 175 166 168 146 136 128 121 110 120 126 122 122 120 127 124 120 115 116 118 134 146 155 163 166
172 162 140 105 63 37 29 14 6 344 344 336 332 341 359 9 19 55 80 160 184 173 167 160 152 144 146 144 139 131 133 137 139 126 119 117 123 127 136 139 148 164 165
Height
756 756 754 752 753 752 752 753 757 765 766 768 770 771 771 772 772 772 773 773 772 770 768 770 772 773 775 772 776 778 788 790 794 801 809 813 813 812 811 814 818 819 822
754 755 755 754 753 754 754 756 758 765 768 769 769 769 770 771 771 771 770 769 768 767 766 765 764 762 763 767 770 769 775 781 782 786 798 811 816 812 812 810 814 815 819
751 754 754 754 752 754 756 757 760 764 765 767 768 769 769 769 767 766 767 766 765 765 763 762 758 756 756 755 757 756 762 763 769 770 774 798 798 801 805 805 808 812 814
752 753 754 755 754 755 757 759 762 764 765 765 764 766 767 766 764 764 763 762 762 760 760 759 755 749 746 744 743 743 750 753 743 762 763 763 772 784 798 803 806 809 811
753 755 756 756 757 758 758 760 761 762 762 761 762 763 764 763 761 760 760 759 757 755 753 752 749 748 747 739 738 733 740 742 748 754 745 752 759 765 765 782 795 806 806
753 754 755 756 757 758 758 760 762 764 764 765 766 765 763 760 758 756 754 751 749 748 747 745 743 742 741 737 735 735 730 730 730 733 740 738 745 749 747 760 774 785 797
753 754 755 755 756 757 758 760 761 762 764 765 764 762 761 760 757 754 749 744 740 738 738 740 737 734 731 731 730 726 725 728 722 714 729 727 732 736 736 745 762 775 792
752 754 754 753 754 756 757 759 762 763 763 763 762 761 760 756 751 748 743 739 734 729 728 727 726 726 724 721 719 718 717 715 717 723 716 722 727 730 729 734 747 773 784
752 751 751 751 754 757 759 760 761 761 761 760 759 757 753 750 745 740 736 730 726 722 720 718 714 711 710 710 711 704 701 702 701 704 712 715 722 716 721 724 731 737 762
751 753 753 754 756 757 759 760 760 760 759 756 752 749 746 742 738 731 725 721 715 713 710 706 703 700 696 695 695 692 687 686 687 688 696 701 705 716 714 719 728 730 736
752 753 754 755 756 756 757 757 756 753 750 746 744 741 739 735 729 722 716 711 708 703 698 694 688 686 683 680 680 677 674 671 671 672 678 686 696 701 709 711 720 724 731
752 751 750 751 752 753 752 751 748 745 744 741 738 733 730 726 720 715 709 705 701 695 688 682 676 672 669 664 663 659 656 653 650 652 661 670 682 691 699 702 712 715 732
746 746 747 748 748 748 747 745 743 740 738 734 730 727 724 719 712 706 699 694 690 684 676 671 665 661 654 647 644 638 632 631 634 635 645 655 666 681 684 693 709 719 726
744 745 745 746 745 744 742 738 736 734 732 729 727 722 717 710 701 694 689 680 677 673 666 660 655 648 641 633 624 611 599 605 611 619 629 641 655 668 674 685 697 712 721
744 745 745 744 742 741 739 736 733 732 729 723 720 715 709 704 696 688 682 675 667 663 658 652 645 639 633 624 613 599 595 597 605 618 624 636 650 657 667 680 695 704 715
743 742 741 740 739 735 734 733 731 728 724 719 713 708 702 695 688 681 675 665 659 656 651 645 640 634 627 620 611 604 608 605 612 619 628 637 651 658 670 681 688 698 709
736 737 737 735 732 731 731 729 726 723 720 715 708 701 695 687 679 672 667 658 655 652 646 642 638 632 626 620 616 612 613 613 618 627 634 645 654 661 671 681 691 701 709
731 731 731 728 727 727 728 726 723 719 714 706 701 697 690 681 674 668 659 656 653 649 644 641 638 633 629 624 621 619 619 622 628 634 640 648 656 664 674 683 694 703 712
724 724 722 723 724 725 725 723 719 713 707 701 697 690 683 676 670 664 657 655 651 648 645 642 639 636 633 631 628 627 629 633 637 642 646 651 660 667 675 684 696 704 715
719 717 719 722 722 722 722 718 712 707 703 699 692 687 682 675 669 662 657 654 651 650 647 645 643 640 638 637 636 636 638 642 646 652 656 661 667 674 682 690 699 706 714
713 715 719 721 720 719 717 714 708 704 700 695 691 686 682 674 668 661 659 655 654 652 651 649 647 646 645 645 644 644 647 649 654 658 665 671 676 682 688 694 701 707 715
713 715 716 718 718 717 713 708 707 701 697 694 691 687 679 673 667 663 660 658 658 656 655 654 653 653 653 652 651 652 652 656 659 666 672 678 684 689 694 700 706 711 717
712 714 715 716 716 713 709 707 703 699 697 695 691 687 679 674 668 665 662 661 660 660 659 659 660 660 660 660 659 660 661 664 668 673 680 685 691 696 701 705 710 715 722
712 715 714 713 712 710 707 703 701 699 698 695 690 687 681 675 670 667 665 665 665 664 664 664 665 666 666 668 668 669 670 673 677 682 686 691 696 701 705 711 716 721 727
707 709 710 709 709 705 701 701 700 699 699 694 692 686 681 677 673 670 668 668 668 667 667 668 670 671 673 675 674 676 679 681 683 687 693 698 702 709 714 718 721 727 732
704 706 707 707 706 702 700 703 703 702 696 695 693 687 682 679 676 673 672 671 670 670 670 672 673 676 678 680 682 685 687 689 692 695 701 707 711 716 720 723 726 730 734